Vorticity
5 5 5 5 5 5 6 6 6 7 7 8 8 8 8 7 7 7 7 7 7 7 7 7 7 7 7 7 7 7 7 8 8 9 9 9 9 10 10 10 10 9 9 9 9 8 8 8 8 8 8 8 8 8 8 8 7 7 7 7 7 7 7 6 6 6 5 5 5 5 4 4 4 4 4 4 4 4 4 4 4 4 4 4 4 4 5 5 5 5 5 5 6 6 6 6 6 6 6 6 7 7 7
6 5 5 5 5 6 6 6 7 7 8 8 8 8 8 8 7 7 6 6 6 6 6 7 7 7 7 7 7 7 7 7 8 8 8 9 9 10 10 10 10 10 10 10 9 9 9 9 8 8 8 8 8 8 8 7 7 7 7 7 7 7 7 7 7 7 6 6 6 5 5 5 5 4 4 4 4 4 4 4 4 4 4 4 4 4 4 4 4 5 5 5 5 5 5 5 5 5 6 6 6 6 6
6 6 5 6 6 6 6 6 7 7 8 8 9 9 8 8 7 7 6 6 6 6 6 6 6 6 6 6 6 6 7 7 7 7 8 8 9 9 10 10 10 10 10 10 10 10 10 10 9 9 9 9 8 8 8 7 7 7 7 7 7 7 7 7 7 7 7 7 7 7 6 6 6 5 5 5 4 4 4 4 4 4 4 4 4 4 4 4 4 4 4 4 4 5 5 5 5 5 5 5 5 5 5
6 6 6 6 6 6 6 6 7 7 8 8 9 9 8 8 7 7 6 6 6 6 6 6 6 6 6 6 6 6 6 6 6 7 7 7 8 8 9 9 10 10 10 11 11 11 10 10 10 10 10 10 9 9 8 8 8 7 7 7 7 7 7 7 7 7 7 7 7 7 7 7 7 7 6 6 6 5 5 5 5 4 4 4 4 4 4 4 4 4 4 4 4 4 4 4 4 4 4 4 5 5 5
6 6 6 6 6 6 6 6 7 7 8 8 8 8 8 8 7 7 6 6 6 6 6 6 6 6 6 6 6 6 6 6 6 6 6 6 7 7 8 8 9 9 10 10 11 11 11 11 11 11 11 11 11 10 10 9 9 8 8 8 8 8 7 7 7 7 7 7 7 7 7 7 7 7 7 7 7 7 6 6 6 5 5 5 5 4 4 4 4 4 4 4 4 4 4 4 4 4 4 4 4 4 4
6 6 6 6 6 6 6 6 7 7 7 8 8 8 8 8 7 7 6 6 6 6 6 6 6 6 6 6 5 5 5 5 5 6 6 6 6 6 6 7 7 8 8 9 10 10 10 11 11 11 12 12 12 11 11 11 10 10 9 9 9 9 8 8 8 7 7 7 7 7 7 7 7 7 7 7 7 7 8 7 7 7 7 6 6 6 5 5 5 4 4 4 4 4 4 4 4 4 4 4 4 4 4
6 6 6 6 6 6 6 6 7 7 7 7 7 8 8 8 7 7 7 6 6 6 5 5 5 5 5 5 5 5 5 5 5 5 5 5 5 5 6 6 6 6 7 7 8 9 9 10 10 11 11 11 11 12 12 12 12 11 11 10 10 10 10 9 9 9 8 8 8 7 7 7 7 7 6 6 7 7 7 7 7 8 8 8 7 7 7 6 6 6 5 5 5 4 4 4 4 4 4 4 4 4 4
6 6 6 6 6 6 6 6 7 7 7 7 7 7 7 7 7 7 7 7 6 6 6 5 5 5 5 5 5 5 5 5 5 5 5 5 5 5 5 5 5 5 6 6 6 7 7 8 8 9 10 10 10 11 11 11 12 12 12 11 11 11 10 10 10 10 10 9 9 9 8 8 7 7 7 7 6 6 6 6 6 7 7 7 7 7 8 8 7 7 7 6 6 6 5 5 5 5 4 4 4 4 4
6 6 5 5 6 6 6 6 6 6 7 7 7 7 7 7 7 7 7 7 6 6 6 6 5 5 5 5 5 5 5 5 5 5 5 5 5 5 5 5 5 5 5 5 5 5 6 6 6 7 8 8 9 9 9 10 10 11 11 11 11 11 11 11 11 11 11 11 10 10 10 9 9 9 8 8 7 7 7 6 6 6 6 6 6 7 7 7 7 8 8 8 7 7 7 6 6 6 5 5 5 5 4
6 5 5 5 6 6 6 6 6 6 6 6 6 6 7 7 7 7 7 7 7 6 6 6 6 6 5 5 5 5 5 5 5 5 5 4 4 4 4 4 4 4 4 4 4 4 4 5 5 5 6 6 7 7 7 8 8 9 9 10 10 10 10 10 10 10 11 11 11 11 11 11 10 10 10 9 9 9 8 8 7 7 7 6 6 6 6 6 6 7 7 7 7 8 8 7 7 7 7 7 6 6 6
5 5 5 5 5 5 6 6 6 6 6 6 6 6 6 6 6 6 6 6 6 6 6 6 6 6 6 5 5 5 5 5 5 5 4 4 4 4 4 4 4 4 4 4 4 4 4 4 4 4 4 4 5 5 6 6 6 7 8 8 8 9 9 9 10 10 10 10 10 11 11 11 11 11 11 11 10 10 10 9 9 8 8 7 7 7 6 6 6 6 6 6 6 7 7 7 7 7 8 8 7 7 7
5 5 5 5 5 5 5 5 5 5 5 5 6 6 6 6 6 6 6 6 6 6 6 6 6 6 6 6 5 5 5 5 5 5 5 5 4 4 4 4 4 4 4 4 4 4 4 4 4 4 4 4 4 4 4 4 5 5 6 6 7 7 8 8 8 9 9 9 9 10 10 10 10 10 11 11 11 11 11 10 10 10 9 9 8 8 8 7 7 6 6 6 6 6 6 6 6 6 7 7 7 7 8
5 5 5 5 5 5 5 5 5 5 5 5 5 5 5 5 5 5 5 5 5 5 5 5 5 5 5 5 5 5 5 5 5 5 5 5 5 5 5 5 4 4 4 4 4 4 4 4 4 4 4 4 4 4 4 4 4 4 4 4 5 5 6 6 7 7 7 8 8 8 9 9 9 10 10 10 10 10 10 10 10 10 10 10 10 9 9 8 8 8 7 7 6 6 6 6 6 6 6 6 6 6 7
5 5 5 5 5 5 5 5 4 4 4 4 4 5 5 5 5 5 5 5 5 5 5 5 5 5 5 5 5 5 5 5 5 5 5 5 5 5 5 5 5 5 5 4 4 4 4 4 4 4 4 4 4 4 4 4 4 4 4 4 4 4 4 4 5 5 6 6 6 7 7 8 8 8 9 9 9 9 10 10 10 10 10 10 10 10 10 9 9 9 8 8 8 7 7 7 6 6 6 6 6 6 6
4 4 4 4 5 4 4 4 4 4 4 4 4 4 4 4 4 4 4 4 4 4 4 4 4 4 4 5 5 5 5 5 5 5 5 5 5 5 5 5 5 5 5 5 5 5 5 5 5 4 4 4 4 4 4 4 4 4 4 4 4 4 4 4 4 4 4 4 5 5 5 6 6 7 7 8 8 8 9 9 9 9 10 10 10 10 10 10 10 9 9 9 9 8 8 8 7 7 7 6 6 6 6
4 4 4 4 4 4 4 4 4 4 4 4 4 4 4 4 4 4 4 4 4 4 4 4 4 4 4 4 4 4 4 4 4 4 5 5 5 5 5 5 5 5 5 5 5 5 5 5 5 5 5 5 5 5 5 4 4 4 4 4 4 4 4 4 4 4 4 4 4 4 4 4 5 5 5 6 6 7 7 8 8 8 9 9 9 10 10 10 10 10 10 9 9 9 9 8 8 8 7 7 7 7 6
4 4 4 4 4 4 4 4 4 4 4 4 4 4 4 4 4 4 4 4 4 4 4 4 4 4 4 4 4 4 4 4 4 4 4 5 5 5 5 5 5 5 5 5 5 5 5 5 5 5 5 5 5 5 5 5 5 5 5 5 5 4 4 4 4 4 4 4 4 4 4 4 4 4 4 5 5 5 5 6 6 7 7 8 8 9 9 9 10 10 10 10 9 9 9 9 9 8 8 8 8 7 7
4 4 4 4 4 4 4 4 4 4 4 4 4 4 4 4 4 4 4 4 4 4 4 4 4 4 4 4 4 4 4 5 5 5 5 5 5 5 5 5 5 5 5 5 5 5 5 5 5 5 5 5 5 5 5 5 5 5 5 5 5 5 5 5 5 5 5 4 4 4 4 4 4 4 4 4 4 4 4 5 5 5 6 6 7 7 8 8 9 9 9 9 9 9 9 9 9 9 9 9 8 8 8
4 4 4 4 4 4 4 4 4 4 4 4 4 4 4 4 4 4 4 4 4 4 4 4 4 5 5 5 5 5 5 5 5 5 5 5 5 5 5 5 5 5 5 5 5 5 5 5 5 5 5 5 5 5 6 6 6 6 5 5 5 5 5 5 5 5 5 5 5 5 5 5 5 4 4 4 4 4 4 4 4 5 5 5 5 6 6 7 7 8 8 9 9 9 9 9 9 9 9 9 9 9 8
4 4 4 4 4 4 4 4 4 4 4 4 4 4 4 4 4 4 4 4 5 5 5 5 5 5 5 5 5 5 5 5 5 5 5 5 5 5 5 5 5 5 5 5 5 5 5 5 5 5 5 5 5 5 6 6 6 5 5 5 6 6 6 6 5 5 5 5 5 5 5 5 5 5 5 5 5 5 5 5 5 5 5 5 5 5 5 6 6 6 7 7 8 8 9 9 9 9 9 9 9 9 9
5 5 4 4 4 4 4 4 4 4 4 4 4 4 4 4 4 4 4 4 5 5 5 5 5 5 5 5 5 5 6 5 5 5 5 5 6 6 6 6 6 6 5 5 5 5 5 5 5 5 5 5 5 5 6 6 5 5 5 6 6 6 6 6 6 6 6 6 6 6 6 5 5 5 5 5 5 5 5 5 5 5 5 5 5 5 5 5 5 6 6 6 6 7 7 8 8 9 9 9 9 9 9
5 5 5 5 4 4 4 4 4 4 4 4 4 4 4 4 4 4 4 4 4 5 5 5 5 5 5 5 5 5 5 5 5 5 6 6 6 6 6 6 6 6 6 6 6 6 5 5 5 5 5 5 5 6 6 6 6 6 6 6 6 6 6 6 6 6 6 6 6 6 6 6 6 6 6 6 6 6 6 5 5 5 5 5 5 5 5 5 5 5 5 5 6 6 6 7 7 7 8 8 9 9 9
6 6 5 5 5 5 5 4 4 4 4 4 4 4 4 4 4 4 4 4 4 4 5 5 5 5 5 5 5 5 5 5 5 5 5 6 6 6 7 6 7 6 6 6 6 6 6 6 6 6 6 6 6 6 6 6 6 6 6 6 6 6 6 6 6 6 6 6 6 6 6 6 6 6 6 6 6 6 6 6 6 6 6 5 5 5 5 5 5 5 5 5 5 5 6 6 6 6 7 7 7 8 8
6 6 6 6 6 5 5 5 5 5 5 5 4 4 4 4 4 4 4 4 4 4 5 5 5 5 5 5 5 5 5 5 6 6 6 6 6 7 7 7 7 7 7 7 7 7 7 7 6 6 7 7 7 7 7 7 7 6 6 6 6 6 6 6 6 6 6 6 6 6 5 6 6 6 6 6 6 6 6 6 6 6 6 6 6 6 6 5 5 5 5 5 5 5 5 5 6 6 6 6 6 7 7
7 7 7 6 6 6 6 6 5 5 5 5 5 4 4 4 4 4 4 4 5 5 5 5 4 4 4 5 5 5 5 5 6 6 6 6 6 7 7 7 7 7 7 7 7 7 7 7 7 7 7 7 7 7 7 7 7 7 7 6 6 6 6 6 6 6 5 5 5 5 5 5 5 5 5 5 5 5 5 5 5 5 5 6 6 6 6 6 6 6 6 6 5 5 5 5 5 5 6 6 6 6 6
8 8 7 7 7 7 7 6 6 6 6 5 5 5 5 5 5 5 5 5 5 5 4 4 4 4 4 4 5 5 5 5 6 6 6 7 7 7 7 7 7 7 7 7 7 7 7 7 7 7 7 7 7 7 7 7 6 6 6 6 6 6 6 5 5 5 5 5 5 4 4 4 4 5 4 4 4 4 4 4 4 4 4 5 5 5 5 5 5 5 6 6 6 6 6 6 6 6 5 6 6 6 6
8 8 8 8 8 7 7 7 7 7 6 6 6 6 5 5 5 5 5 5 5 5 4 4 4 4 5 5 5 5 5 6 6 6 6 7 7 7 6 7 6 6 6 6 6 7 7 7 7 7 7 6 6 6 6 6 6 5 5 5 5 5 4 4 4 4 4 4 4 3 3 3 3 3 4 4 4 4 4 3 3 3 3 3 3 4 4 4 4 5 5 5 5 5 5 5 5 5 5 5 5 5 6
8 8 8 8 8 8 8 8 7 7 7 6 6 6 6 6 6 6 6 5 5 5 5 5 5 5 5 5 5 5 6 6 6 6 6 6 6 6 6 6 6 6 6 6 6 7 7 7 7 6 6 6 6 6 5 5 5 4 4 4 3 3 3 3 3 3 3 3 3 3 3 3 3 3 3 4 4 4 4 4 3 3 3 3 3 3 3 3 4 4 4 4 4 5 5 5 5 5 5 5 6 6 6
8 8 8 8 8 8 8 8 8 8 7 7 7 7 7 7 6 6 6 6 5 5 5 5 5 5 5 5 6 6 6 6 6 6 6 6 6 6 6 6 6 6 6 6 7 7 7 7 6 6 5 5 5 4 4 3 3 3 3 2 2 2 2 2 2 2 2 2 2 3 3 3 4 4 4 5 5 5 5 5 5 4 4 4 4 4 4 4 4 4 4 4 4 4 4 4 5 5 6 6 6 6 7
7 7 7 7 7 8 8 8 8 8 8 7 7 7 8 7 7 6 6 6 6 6 6 6 6 6 6 5 6 6 5 5 5 5 5 5 6 6 6 6 6 6 6 6 7 6 6 5 5 4 4 3 3 2 2 2 1 1 1 2 2 2 2 2 2 2 2 3 3 3 4 4 5 5 6 7 7 7 7 7 6 6 6 6 6 6 6 6 6 6 6 6 6 5 5 5 5 6 6 7 7 7 8
6 6 7 7 7 7 7 7 7 8 8 8 8 8 8 8 7 7 7 6 6 6 6 6 6 6 6 6 6 5 5 5 5 5 5 5 5 5 6 5 5 6 6 6 6 5 5 4 4 3 2 1 1 1 0 0 0 1 1 2 2 3 3 3 3 3 4 4 4 5 5 6 6 7 7 8 8 7 7 7 7 7 7 7 8 8 8 8 8 8 8 8 7 7 6 6 6 7 7 7 7 7 8
5 6 6 6 6 7 7 6 7 7 8 8 8 8 8 8 8 7 7 7 7 7 7 6 6 6 6 6 6 5 5 5 5 5 5 5 5 5 6 6 6 6 5 5 5 5 5 4 3 2 1 1 1 0 -0 0 1 1 2 3 4 4 5 5 5 6 6 6 6 6 7 7 8 8 8 7 7 6 6 6 6 6 7 8 8 9 9 9 9 9 9 8 8 8 7 7 7 7 7 7 7 7 7
5 6 6 6 6 6 6 6 6 7 7 7 7 8 8 8 8 8 7 8 8 7 7 7 7 6 6 6 6 6 6 6 6 5 5 6 6 6 6 6 6 6 5 6 5 5 4 4 3 2 2 1 1 1 2 2 3 4 5 6 7 7 8 7 7 7 7 7 7 7 8 8 8 8 8 7 6 5 5 5 6 7 7 8 9 9 9 9 9 9 9 8 8 8 7 7 7 7 7 6 6 6 6
5 6 6 6 5 5 5 6 6 6 6 7 7 7 7 8 8 8 8 8 8 7 7 7 7 7 7 6 6 6 6 6 6 6 6 6 6 6 6 7 7 6 6 6 5 5 4 4 4 3 2 2 2 3 4 4 5 6 7 8 8 9 8 8 7 7 7 7 7 8 8 9 9 9 8 7 7 6 6 7 8 8 9 9 9 9 9 9 9 9 9 9 8 8 8 7 7 7 6 6 6 6 6
6 6 6 5 5 5 6 6 6 6 6 6 7 7 7 7 8 8 8 8 8 8 8 7 7 7 7 7 6 6 7 7 7 7 6 6 7 7 7 7 6 6 6 6 5 5 4 4 4 3 3 3 4 4 5 6 7 7 8 8 8 8 7 7 6 6 6 7 7 8 9 9 9 9 9 8 8 9 9 10 10 10 11 11 10 10 10 10 10 10 10 9 9 9 9 8 8 7 7 6 6 6 6
6 6 6 6 6 6 6 6 6 6 6 6 7 7 7 7 7 8 8 8 8 8 8 8 7 7 7 7 7 7 7 6 7 7 7 7 7 6 7 6 6 5 5 5 5 4 4 4 3 3 3 4 4 5 6 7 7 7 8 8 7 7 6 6 6 6 6 7 8 9 10 10 10 10 10 10 10 11 11 12 12 12 12 11 11 11 11 11 11 11 11 11 10 10 10 10 9 9 9 8 8 7 6
6 6 6 6 6 6 6 6 6 6 6 6 6 7 7 7 7 8 8 8 8 9 8 8 8 8 7 7 7 7 7 6 7 7 8 7 6 6 6 5 5 4 5 4 3 2 2 2 2 2 3 3 4 5 6 6 7 7 7 7 6 6 6 6 6 6 7 8 9 10 11 11 11 11 11 12 12 13 13 13 13 13 12 12 12 11 11 11 11 11 11 11 11 11 11 11 11 11 10 10 9 9 8
6 6 6 7 7 7 7 6 6 6 6 6 7 7 7 7 7 8 8 8 9 9 8 9 9 8 8 8 7 7 7 7 7 7 7 6 6 6 5 4 4 4 4 3 2 2 1 1 2 3 4 4 5 6 6 6 6 6 6 6 6 6 6 6 7 7 8 9 10 11 11 11 12 12 13 13 14 14 14 13 13 13 13 12 12 12 12 12 12 12 12 12 12 12 12 12 12 12 12 11 11 11 10
7 6 7 7 7 7 7 6 6 6 7 7 7 7 7 7 7 8 8 8 9 9 9 9 9 8 9 8 8 8 8 7 7 7 6 6 6 6 5 4 4 4 3 2 2 3 3 4 5 6 7 8 8 8 7 6 6 5 5 6 6 6 7 7 8 8 9 10 11 11 12 12 13 13 14 14 14 13 13 13 13 13 13 12 12 12 12 12 12 12 12 12 12 12 12 12 12 12 12 12 12 12 12
7 7 7 7 7 7 6 6 6 6 7 7 7 7 8 7 7 8 8 8 9 9 9 8 8 8 9 9 8 8 8 8 8 7 7 6 6 6 5 5 4 4 4 3 4 5 7 8 10 11 11 11 10 9 8 7 7 6 7 7 8 8 9 9 10 10 11 11 11 12 12 12 13 13 13 13 12 12 12 12 12 12 12 12 12 12 12 12 12 12 12 12 12 12 12 12 12 12 13 13 13 13 13
7 7 7 7 7 7 6 7 7 7 7 7 7 8 8 8 8 8 8 9 9 9 9 9 9 8 8 8 8 8 8 8 8 7 7 7 7 6 5 4 4 4 4 5 7 8 10 11 12 12 12 11 10 9 8 8 8 8 9 9 10 10 10 11 11 12 12 12 12 12 12 12 12 12 11 11 10 10 10 10 11 11 11 11 11 11 11 11 11 11 11 11 11 11 12 12 12 12 12 12 13 13 13
7 7 7 7 7 7 7 7 7 7 7 7 7 8 8 9 9 9 8 9 8 8 8 9 9 9 7 8 8 8 7 8 8 8 7 7 6 5 4 4 4 4 6 7 9 10 10 11 11 10 10 9 9 9 9 9 9 10 10 11 11 11 12 13 13 13 14 13 13 13 12 12 11 10 9 9 9 9 9 9 9 9 10 10 10 10 10 11 11 11 11 11 11 11 11 11 11 11 11 11 12 12 12
7 7 7 7 7 7 8 7 7 8 7 7 8 8 8 9 9 9 9 8 8 8 8 8 9 9 8 8 8 8 7 8 8 8 7 6 5 4 4 4 5 6 7 9 9 9 9 9 9 9 8 8 9 9 9 10 10 11 11 11 12 12 13 13 14 14 14 13 13 12 11 10 9 8 8 8 8 8 8 8 8 9 9 9 9 10 10 10 10 10 10 10 10 10 10 10 10 10 10 10 10 11 11
7 7 7 7 7 7 8 8 8 8 8 8 8 8 8 8 8 8 8 8 8 7 7 8 8 8 8 8 7 7 7 7 6 7 7 6 5 4 4 5 6 7 8 9 9 8 8 8 8 8 8 9 9 9 10 10 11 11 11 11 12 12 13 14 14 14 13 13 12 11 10 9 8 7 7 7 8 8 8 8 9 9 9 9 9 9 9 9 9 9 9 9 9 9 9 9 9 9 9 9 9 9 9
7 8 8 8 8 8 8 8 8 8 8 8 8 8 8 8 8 8 8 8 8 7 6 7 8 9 9 7 7 6 7 6 5 5 5 5 5 5 6 7 7 8 8 8 8 7 8 8 8 8 9 9 9 9 10 10 10 10 10 11 12 13 13 13 13 13 12 12 11 10 9 8 7 7 7 8 8 8 9 9 9 9 9 10 10 10 10 9 9 9 9 9 9 9 9 9 8 8 8 8 8 8 8
8 8 8 8 8 8 8 8 8 8 8 8 8 8 8 8 8 8 8 8 8 8 7 7 7 9 9 8 7 6 6 6 6 6 6 6 6 6 7 7 7 7 7 7 7 7 8 8 8 9 9 9 9 9 9 10 10 10 10 11 12 12 13 12 12 11 11 10 9 8 8 7 7 7 7 8 8 9 9 9 10 10 10 10 10 10 10 10 9 9 9 9 9 9 9 9 8 8 8 8 8 8 8
9 9 9 9 9 8 8 8 8 8 8 8 8 8 8 8 8 7 7 7 7 8 8 7 7 7 8 8 8 7 6 6 6 6 6 6 6 6 6 6 6 7 7 6 7 8 9 9 9 9 9 9 9 9 9 9 9 10 11 11 12 12 12 11 11 10 9 8 8 7 7 7 7 7 7 8 8 9 9 9 10 10 10 10 10 10 9 9 9 9 9 9 9 9 9 9 9 9 9 9 9 9 9
10 10 10 9 9 8 8 8 8 7 7 7 7 8 8 7 7 7 7 6 6 7 7 7 7 6 6 7 8 8 7 7 7 6 5 5 6 7 6 5 6 7 8 8 8 9 10 9 9 9 9 9 9 9 9 9 10 10 11 11 12 12 11 10 10 9 8 7 7 6 6 7 7 7 8 8 9 9 9 9 9 9 9 9 9 9 9 9 9 9 9 9 10 10 10 10 10 10 10 11 11 11 11
10 10 9 9 8 8 7 7 7 7 7 7 7 7 7 7 6 7 7 7 7 7 7 8 8 7 6 7 7 7 7 7 7 6 5 4 5 6 7 7 7 7 8 10 10 10 11 10 10 10 9 9 9 9 9 9 10 11 11 12 12 11 10 9 8 7 6 6 6 6 6 7 7 8 9 9 9 9 9 9 9 9 9 9 9 8 8 9 9 9 9 10 10 10 10 11 11 11 11 11 12 12 12
9 9 8 8 8 7 7 6 6 7 7 7 7 7 6 7 7 7 7 8 8 8 7 9 10 9 6 6 6 7 7 7 6 5 7 7 5 4 5 8 8 8 10 11 12 12 11 11 10 10 9 9 9 9 9 10 10 11 11 11 11 10 9 8 7 6 6 6 6 6 6 7 8 9 9 10 10 10 10 9 9 9 9 9 8 8 8 9 9 9 9 10 10 10 10 11 11 11 11 11 12 12 12
9 8 7 7 7 6 6 6 6 6 6 6 7 7 7 7 7 7 7 7 8 8 8 7 8 10 9 7 6 6 7 7 6 6 6 7 7 6 5 5 7 10 12 13 13 12 10 10 10 10 9 9 9 9 10 10 11 11 11 10 10 9 8 7 6 6 6 6 6 6 7 8 9 9 10 10 10 10 10 9 9 9 9 9 8 9 9 9 9 9 10 10 10 10 10 10 10 10 10 10 11 11 11
8 7 6 6 6 6 6 6 6 6 6 6 7 7 8 7 7 8 8 7 7 7 9 7 6 7 10 9 8 7 8 7 7 8 6 4 5 7 7 7 9 12 12 12 12 11 10 10 10 9 9 9 10 10 10 11 11 11 10 10 9 8 7 6 6 6 6 6 7 7 8 9 9 10 10 10 10 10 10 9 9 9 9 9 9 9 9 9 9 10 10 10 10 10 10 10 10 10 10 9 9 9 10
6 6 6 6 6 6 6 6 6 6 7 7 7 7 7 8 7 7 7 7 7 7 9 9 7 5 6 9 9 9 9 8 7 7 7 5 4 5 9 11 12 12 11 10 10 11 11 10 9 9 9 8 9 11 11 11 11 10 9 8 8 7 6 6 6 6 6 7 8 8 9 9 10 10 10 10 10 9 9 9 9 9 8 9 9 9 9 9 10 10 10 10 9 9 9 9 9 9 9 9 9 9 9
6 6 6 6 6 6 6 6 6 7 7 8 7 7 7 7 7 7 7 7 7 7 7 9 8 7 5 7 8 8 8 8 6 5 6 6 5 5 8 11 11 10 9 9 10 11 12 10 8 8 9 9 9 11 11 11 10 9 8 7 7 7 7 6 7 7 7 8 8 9 10 10 10 10 10 9 9 9 8 8 8 8 8 9 9 9 10 10 10 9 9 9 9 8 8 8 8 8 8 8 8 8 8
7 7 6 6 6 6 7 7 7 7 7 8 8 8 8 8 8 7 7 7 7 7 7 7 9 9 8 7 7 7 6 6 6 5 5 5 6 7 8 9 10 10 9 9 9 10 10 10 9 8 9 10 10 10 10 8 8 7 7 7 7 7 7 8 8 8 9 9 9 10 10 10 10 10 9 8 8 8 8 8 8 8 9 9 9 10 10 9 9 9 9 8 8 7 7 7 7 7 7 7 7 8 8
6 7 7 7 7 7 7 7 7 8 7 8 8 8 8 8 8 7 7 7 7 8 8 8 8 9 9 7 6 6 6 6 6 6 4 4 6 8 9 9 9 10 10 10 9 9 9 10 10 10 9 9 8 8 8 7 7 7 8 8 8 8 8 9 9 9 10 10 10 10 10 10 9 9 8 8 7 7 7 7 8 8 9 9 10 10 10 9 9 8 8 7 7 6 6 6 6 6 6 6 7 7 7
7 7 7 8 8 8 8 8 8 8 8 8 9 9 8 8 8 8 8 8 8 9 9 8 7 8 9 9 7 6 5 5 5 5 5 4 5 7 9 9 9 8 8 10 11 12 12 11 10 10 10 7 6 6 6 7 8 8 8 9 9 9 9 10 10 10 11 10 10 10 9 9 9 8 8 7 7 7 7 7 8 9 9 9 10 10 9 9 8 8 7 7 6 6 6 6 6 6 6 6 6 6 7
8 8 7 7 8 8 8 8 8 8 8 9 9 9 8 9 9 8 8 8 8 8 8 8 8 7 8 9 9 7 6 4 4 4 5 5 6 7 8 9 9 9 9 9 9 11 14 11 9 8 10 6 5 5 5 6 8 8 9 9 9 10 10 10 11 11 11 10 10 9 9 8 8 7 7 7 7 7 7 8 9 9 9 10 10 9 9 8 8 7 7 7 6 6 6 6 6 6 6 6 6 6 6
8 8 8 8 8 8 9 9 9 9 9 9 9 9 9 9 9 8 8 8 8 8 8 9 9 8 7 8 8 8 6 5 5 5 5 6 6 7 8 9 10 10 9 8 7 6 8 8 8 8 7 8 7 6 6 7 7 8 8 9 9 10 10 10 11 10 10 10 9 9 8 8 7 6 6 6 7 7 8 9 9 10 10 10 9 9 9 8 7 7 7 6 6 6 6 6 6 6 6 6 7 7 7
9 8 8 8 9 9 9 9 9 10 9 9 9 9 9 9 8 8 8 9 9 9 9 9 9 9 9 8 8 7 6 6 6 6 6 6 6 7 8 10 11 11 9 8 6 4 4 5 6 7 6 7 8 9 9 8 7 6 7 8 9 9 10 10 10 10 10 9 9 8 8 7 7 6 6 7 7 8 9 9 10 10 10 10 9 9 8 7 7 6 6 6 6 6 6 6 6 6 7 7 7 7 7
9 9 9 9 9 9 9 10 10 10 9 9 9 9 9 9 8 8 9 9 9 9 9 9 9 9 9 8 7 7 7 6 6 6 6 6 6 7 9 11 11 11 9 7 6 5 3 4 5 5 6 7 8 8 9 8 7 7 7 7 8 8 9 9 9 9 9 8 8 7 7 7 6 6 7 7 8 9 9 10 10 10 10 9 9 8 7 7 6 6 6 6 6 6 6 6 6 6 6 6 6 6 6
Height
5870 5870 5869 5869 5868 5868 5867 5867 5866 5866 5865 5865 5865 5864 5864 5864 5863 5862 5862 5861 5861 5861 5860 5859 5859 5858 5857 5857 5856 5856 5855 5854 5853 5853 5852 5851 5851 5850 5850 5849 5848 5848 5847 5847 5846 5846 5846 5846 5845 5845 5845 5844 5844 5843 5843 5842 5841 5841 5841 5840 5840 5840 5839 5839 5838 5838 5838 5837 5837 5837 5836 5836 5836 5835 5835 5834 5834 5834 5833 5833 5832 5832 5832 5831 5831 5831 5831 5830 5830 5829 5829 5828 5828 5828 5828 5827 5827 5827 5827 5826 5826 5826 5826
5869 5869 5868 5868 5867 5867 5866 5866 5866 5865 5864 5864 5864 5863 5863 5863 5862 5861 5861 5861 5860 5860 5859 5859 5858 5857 5857 5856 5856 5855 5854 5853 5853 5852 5851 5851 5850 5849 5849 5848 5848 5847 5846 5846 5846 5845 5845 5844 5844 5844 5843 5843 5843 5842 5841 5841 5840 5840 5840 5839 5839 5838 5838 5838 5837 5837 5836 5836 5836 5836 5835 5835 5834 5834 5833 5833 5833 5832 5832 5831 5831 5831 5831 5830 5830 5830 5829 5829 5828 5828 5827 5827 5827 5826 5826 5826 5826 5826 5825 5825 5825 5824 5824
5868 5868 5868 5867 5867 5866 5866 5865 5865 5864 5864 5863 5863 5862 5862 5862 5861 5861 5860 5860 5859 5859 5858 5858 5857 5856 5856 5855 5855 5854 5853 5852 5852 5851 5851 5850 5849 5849 5848 5847 5847 5846 5846 5845 5845 5844 5844 5843 5843 5842 5842 5842 5841 5841 5841 5840 5839 5839 5838 5838 5838 5837 5837 5836 5836 5836 5835 5835 5835 5834 5834 5833 5833 5833 5832 5832 5831 5831 5831 5831 5830 5830 5829 5829 5829 5828 5828 5827 5827 5826 5826 5826 5825 5825 5825 5824 5824 5824 5824 5823 5823 5823 5822
5868 5867 5867 5866 5866 5865 5865 5864 5864 5863 5863 5862 5862 5861 5861 5861 5860 5860 5859 5859 5858 5858 5857 5857 5856 5856 5855 5854 5854 5853 5852 5852 5851 5851 5850 5849 5848 5848 5847 5846 5846 5845 5845 5844 5844 5843 5842 5842 5841 5841 5841 5841 5840 5840 5839 5839 5838 5837 5837 5836 5836 5836 5836 5835 5835 5834 5834 5834 5833 5833 5832 5832 5831 5831 5831 5831 5830 5830 5829 5829 5828 5828 5828 5828 5827 5827 5826 5826 5826 5825 5825 5824 5824 5824 5823 5823 5822 5822 5822 5822 5821 5821 5821
5867 5866 5866 5866 5865 5864 5864 5863 5863 5862 5862 5861 5861 5861 5860 5860 5859 5859 5858 5858 5857 5857 5856 5856 5855 5855 5854 5853 5853 5852 5851 5851 5850 5850 5849 5848 5848 5847 5846 5846 5845 5845 5844 5843 5843 5842 5841 5841 5841 5840 5840 5839 5839 5838 5838 5837 5837 5836 5836 5835 5835 5835 5834 5834 5833 5833 5832 5832 5832 5831 5831 5831 5830 5830 5830 5829 5829 5828 5828 5827 5827 5827 5826 5826 5826 5825 5825 5825 5824 5824 5823 5823 5822 5822 5822 5821 5821 5821 5820 5820 5820 5820 5819
5866 5866 5865 5865 5864 5863 5863 5862 5862 5861 5861 5861 5860 5860 5859 5859 5858 5858 5857 5857 5856 5856 5855 5855 5854 5854 5853 5852 5852 5851 5851 5850 5849 5849 5848 5847 5847 5846 5846 5845 5844 5844 5843 5842 5842 5841 5841 5840 5840 5839 5838 5838 5837 5837 5836 5836 5836 5835 5834 5834 5833 5833 5833 5832 5832 5831 5831 5831 5830 5830 5830 5829 5829 5828 5828 5828 5827 5827 5826 5826 5826 5825 5825 5825 5824 5824 5823 5823 5823 5822 5822 5821 5821 5821 5820 5820 5819 5819 5819 5818 5818 5818 5817
5865 5865 5864 5864 5863 5863 5862 5861 5861 5861 5860 5860 5859 5859 5858 5858 5857 5857 5856 5856 5855 5855 5854 5854 5853 5852 5852 5851 5851 5850 5850 5849 5848 5848 5847 5846 5846 5845 5844 5844 5843 5843 5842 5841 5841 5840 5840 5839 5839 5838 5837 5837 5836 5836 5835 5835 5834 5834 5833 5832 5832 5831 5831 5831 5830 5830 5830 5829 5829 5828 5828 5827 5827 5827 5826 5826 5826 5825 5825 5824 5824 5824 5823 5823 5822 5822 5821 5821 5821 5821 5820 5820 5819 5819 5818 5818 5818 5817 5817 5817 5816 5816 5816
5864 5864 5863 5863 5862 5862 5861 5861 5860 5859 5859 5859 5858 5857 5857 5857 5856 5856 5856 5855 5854 5854 5853 5853 5852 5851 5851 5850 5850 5849 5849 5848 5847 5847 5846 5846 5845 5844 5843 5843 5842 5841 5841 5840 5840 5839 5839 5838 5837 5837 5836 5836 5835 5835 5834 5833 5833 5832 5832 5831 5831 5830 5830 5829 5829 5828 5828 5827 5827 5827 5826 5826 5826 5825 5825 5824 5824 5823 5823 5823 5822 5822 5821 5821 5821 5820 5820 5819 5819 5819 5818 5818 5817 5817 5816 5816 5816 5816 5816 5815 5815 5814 5814
5864 5863 5862 5862 5861 5861 5860 5860 5859 5859 5858 5858 5857 5856 5856 5856 5855 5855 5855 5854 5853 5853 5852 5851 5851 5850 5850 5849 5849 5848 5847 5847 5846 5846 5845 5845 5844 5843 5842 5842 5841 5841 5840 5839 5839 5838 5837 5837 5836 5836 5835 5835 5834 5833 5833 5832 5832 5831 5831 5830 5829 5829 5828 5828 5827 5827 5826 5826 5826 5825 5825 5824 5824 5823 5823 5822 5822 5821 5821 5821 5820 5820 5820 5819 5819 5818 5818 5817 5817 5817 5816 5816 5816 5815 5815 5814 5814 5814 5813 5813 5813 5812 5812
5863 5862 5861 5861 5861 5860 5859 5859 5858 5857 5857 5856 5856 5856 5855 5855 5854 5854 5853 5853 5852 5852 5851 5850 5850 5849 5848 5848 5847 5847 5846 5846 5845 5845 5844 5843 5843 5842 5841 5841 5840 5839 5839 5838 5837 5837 5836 5836 5835 5835 5834 5834 5833 5832 5831 5831 5831 5830 5829 5829 5828 5827 5827 5826 5826 5825 5825 5824 5824 5823 5823 5822 5822 5821 5821 5821 5820 5820 5819 5819 5818 5818 5818 5817 5817 5816 5816 5816 5815 5815 5814 5814 5813 5813 5812 5812 5812 5811 5811 5811 5811 5810 5810
5862 5861 5861 5860 5860 5859 5858 5858 5857 5856 5856 5856 5855 5855 5854 5853 5853 5853 5852 5852 5851 5851 5850 5849 5849 5848 5847 5847 5846 5846 5845 5844 5844 5843 5843 5842 5841 5841 5840 5840 5839 5838 5837 5837 5836 5836 5835 5834 5834 5833 5833 5832 5832 5831 5830 5830 5829 5829 5828 5827 5827 5826 5826 5825 5825 5824 5823 5823 5822 5822 5821 5821 5820 5820 5819 5819 5818 5818 5817 5817 5816 5816 5816 5815 5815 5814 5814 5814 5813 5813 5812 5812 5811 5811 5811 5810 5810 5809 5809 5809 5808 5808 5808
5861 5861 5860 5859 5859 5858 5857 5857 5856 5856 5855 5855 5854 5853 5853 5852 5852 5851 5851 5850 5850 5849 5849 5848 5847 5847 5846 5846 5845 5844 5844 5843 5842 5842 5841 5841 5840 5839 5839 5838 5837 5837 5836 5836 5835 5834 5834 5833 5832 5832 5831 5831 5830 5830 5829 5828 5828 5827 5827 5826 5826 5825 5824 5824 5823 5822 5822 5821 5821 5820 5820 5819 5819 5818 5818 5817 5817 5816 5816 5815 5815 5814 5814 5813 5813 5812 5811 5811 5811 5811 5810 5810 5809 5809 5808 5808 5808 5807 5807 5806 5806 5806 5806
5860 5860 5859 5858 5858 5857 5856 5856 5855 5855 5854 5853 5853 5852 5851 5851 5851 5850 5849 5849 5848 5848 5847 5847 5846 5846 5845 5844 5844 5843 5842 5842 5841 5841 5840 5839 5839 5838 5837 5837 5836 5836 5835 5834 5834 5833 5832 5832 5831 5831 5830 5830 5829 5828 5828 5827 5826 5826 5825 5825 5824 5824 5823 5822 5822 5821 5821 5820 5819 5819 5818 5817 5817 5816 5816 5815 5815 5814 5814 5813 5813 5812 5812 5811 5811 5810 5810 5809 5809 5808 5808 5808 5807 5807 5806 5806 5806 5805 5805 5804 5804 5803 5803
5859 5859 5858 5857 5857 5856 5856 5855 5854 5854 5853 5852 5852 5851 5851 5850 5849 5849 5848 5847 5847 5846 5846 5845 5845 5844 5843 5843 5842 5841 5841 5840 5840 5839 5838 5838 5837 5836 5836 5835 5835 5834 5833 5833 5832 5831 5831 5830 5830 5829 5829 5828 5827 5827 5826 5826 5825 5824 5824 5823 5823 5822 5821 5821 5820 5820 5819 5818 5818 5817 5816 5816 5815 5815 5814 5814 5813 5812 5812 5811 5811 5811 5810 5809 5809 5808 5808 5807 5807 5806 5806 5806 5805 5805 5804 5804 5803 5803 5802 5802 5801 5801 5801
5858 5858 5857 5856 5856 5855 5855 5854 5853 5852 5852 5851 5851 5850 5849 5849 5848 5847 5847 5846 5846 5845 5844 5844 5843 5842 5842 5841 5841 5840 5840 5839 5838 5838 5837 5836 5836 5835 5834 5834 5833 5832 5832 5831 5831 5830 5829 5829 5828 5827 5827 5826 5826 5825 5825 5824 5823 5823 5822 5822 5821 5821 5820 5819 5819 5818 5818 5817 5816 5816 5815 5814 5814 5813 5812 5812 5811 5811 5810 5810 5809 5808 5808 5807 5807 5806 5806 5806 5805 5804 5804 5803 5803 5802 5802 5802 5801 5801 5800 5800 5799 5799 5798
5857 5856 5856 5856 5855 5854 5854 5853 5852 5851 5851 5850 5850 5849 5848 5847 5847 5846 5846 5845 5844 5844 5843 5842 5842 5841 5841 5840 5839 5839 5838 5837 5837 5836 5836 5835 5834 5834 5833 5832 5831 5831 5830 5830 5829 5828 5828 5827 5826 5826 5825 5825 5824 5824 5823 5822 5822 5821 5821 5820 5819 5819 5818 5818 5817 5816 5816 5815 5815 5814 5813 5813 5812 5811 5811 5810 5810 5809 5808 5808 5807 5806 5806 5805 5805 5804 5804 5803 5803 5802 5802 5801 5801 5800 5800 5799 5799 5798 5798 5797 5797 5796 5796
5856 5855 5855 5854 5854 5853 5852 5852 5851 5850 5850 5849 5848 5848 5847 5846 5846 5845 5844 5844 5843 5842 5842 5841 5840 5840 5839 5838 5838 5837 5837 5836 5835 5835 5834 5833 5833 5832 5831 5831 5830 5829 5829 5828 5827 5826 5826 5825 5825 5824 5824 5823 5822 5822 5821 5821 5820 5820 5819 5818 5818 5817 5816 5816 5815 5815 5814 5813 5813 5812 5811 5811 5810 5810 5809 5808 5808 5807 5806 5806 5805 5805 5804 5803 5803 5802 5802 5801 5801 5800 5800 5799 5799 5798 5797 5797 5796 5796 5796 5795 5795 5794 5794
5855 5854 5853 5853 5852 5852 5851 5851 5850 5849 5848 5848 5847 5846 5846 5845 5844 5844 5843 5842 5841 5841 5840 5840 5839 5838 5838 5837 5836 5836 5835 5835 5834 5833 5833 5832 5831 5831 5830 5829 5828 5828 5827 5826 5826 5825 5824 5824 5823 5822 5822 5821 5821 5820 5820 5819 5818 5818 5817 5816 5816 5816 5815 5814 5813 5813 5812 5811 5811 5810 5810 5809 5808 5808 5807 5806 5806 5805 5804 5804 5803 5802 5802 5801 5801 5800 5800 5799 5799 5798 5797 5797 5796 5796 5795 5795 5794 5794 5793 5792 5792 5791 5791
5853 5853 5852 5851 5851 5851 5850 5849 5849 5848 5847 5846 5846 5845 5845 5844 5843 5842 5842 5841 5840 5840 5839 5838 5837 5837 5836 5836 5835 5834 5833 5833 5832 5831 5831 5830 5830 5829 5828 5828 5827 5826 5826 5825 5824 5823 5822 5822 5821 5821 5820 5819 5819 5818 5818 5817 5816 5816 5815 5815 5814 5814 5813 5812 5812 5811 5810 5810 5809 5808 5808 5807 5806 5806 5805 5804 5804 5803 5802 5802 5801 5801 5800 5799 5799 5798 5797 5797 5796 5796 5795 5795 5794 5793 5793 5792 5792 5791 5791 5790 5790 5789 5789
5852 5851 5851 5850 5850 5849 5848 5848 5847 5846 5846 5845 5845 5844 5843 5842 5842 5841 5841 5840 5839 5838 5837 5837 5836 5835 5835 5834 5833 5832 5832 5831 5831 5830 5829 5829 5828 5827 5827 5826 5825 5825 5824 5823 5822 5821 5821 5820 5820 5819 5818 5818 5817 5816 5816 5815 5815 5814 5813 5813 5812 5811 5811 5810 5810 5809 5808 5808 5807 5806 5806 5805 5804 5804 5803 5802 5802 5801 5801 5800 5799 5798 5798 5797 5796 5796 5795 5794 5794 5794 5793 5792 5792 5791 5791 5790 5790 5789 5788 5788 5787 5786 5786
5851 5850 5850 5849 5848 5848 5847 5846 5846 5845 5845 5844 5843 5843 5842 5841 5841 5840 5839 5838 5838 5837 5836 5836 5835 5834 5833 5832 5831 5831 5830 5829 5829 5828 5827 5827 5826 5826 5825 5824 5824 5823 5822 5821 5821 5820 5819 5819 5818 5817 5816 5816 5816 5815 5814 5813 5813 5812 5811 5811 5810 5810 5809 5808 5808 5807 5806 5806 5805 5804 5804 5803 5802 5801 5801 5800 5800 5799 5798 5798 5797 5796 5796 5795 5794 5794 5793 5792 5791 5791 5791 5790 5790 5789 5788 5788 5787 5786 5786 5786 5785 5784 5784
5850 5849 5848 5848 5847 5846 5846 5845 5845 5844 5843 5843 5842 5841 5841 5840 5839 5838 5838 5837 5836 5836 5835 5834 5833 5832 5831 5831 5830 5829 5829 5828 5827 5826 5826 5825 5824 5824 5823 5822 5822 5821 5820 5820 5819 5818 5817 5817 5816 5816 5815 5814 5814 5813 5812 5811 5811 5810 5809 5809 5808 5807 5807 5806 5806 5805 5804 5803 5803 5802 5801 5801 5800 5799 5799 5798 5797 5797 5796 5795 5795 5794 5793 5793 5792 5791 5791 5790 5789 5789 5788 5788 5787 5786 5786 5786 5785 5784 5784 5783 5782 5782 5781
5848 5847 5847 5846 5846 5845 5844 5844 5843 5842 5842 5841 5841 5840 5839 5838 5838 5837 5836 5836 5835 5834 5833 5832 5832 5831 5830 5830 5829 5828 5827 5826 5826 5825 5824 5823 5823 5822 5821 5821 5820 5819 5818 5817 5817 5816 5816 5815 5814 5814 5813 5812 5812 5811 5811 5810 5809 5808 5807 5806 5806 5805 5805 5804 5803 5803 5802 5801 5801 5800 5799 5798 5798 5797 5796 5796 5795 5794 5794 5793 5792 5792 5791 5791 5790 5789 5789 5788 5787 5786 5786 5785 5785 5784 5783 5783 5782 5782 5781 5781 5780 5779 5779
5846 5846 5845 5845 5844 5843 5843 5842 5841 5841 5840 5840 5839 5838 5837 5837 5836 5836 5835 5834 5833 5833 5832 5831 5831 5830 5829 5828 5827 5826 5826 5825 5824 5823 5823 5822 5821 5820 5820 5819 5818 5817 5816 5816 5815 5814 5813 5813 5812 5811 5811 5811 5810 5809 5809 5808 5807 5806 5805 5805 5804 5803 5802 5802 5801 5800 5800 5799 5798 5798 5797 5796 5796 5795 5794 5793 5793 5792 5791 5791 5790 5789 5788 5788 5787 5787 5786 5786 5785 5784 5784 5783 5782 5781 5781 5780 5780 5779 5779 5778 5777 5777 5776
5845 5844 5844 5843 5842 5842 5841 5841 5840 5839 5839 5838 5837 5837 5836 5835 5835 5834 5833 5833 5832 5831 5831 5830 5829 5828 5827 5827 5826 5825 5824 5823 5823 5822 5821 5820 5819 5819 5818 5817 5816 5815 5814 5814 5813 5812 5811 5811 5810 5809 5809 5808 5808 5807 5806 5806 5805 5804 5803 5802 5802 5801 5800 5800 5799 5798 5797 5797 5796 5795 5795 5794 5793 5792 5792 5791 5790 5789 5789 5788 5787 5786 5786 5785 5785 5784 5783 5783 5782 5781 5781 5780 5780 5779 5778 5778 5777 5776 5776 5776 5775 5774 5774
5843 5843 5842 5841 5841 5840 5840 5839 5838 5838 5837 5836 5836 5835 5834 5834 5833 5832 5832 5831 5830 5830 5829 5828 5827 5826 5826 5825 5824 5823 5823 5822 5821 5820 5819 5818 5818 5817 5816 5815 5814 5813 5813 5812 5811 5810 5809 5809 5808 5807 5806 5806 5806 5805 5804 5804 5803 5802 5801 5801 5800 5799 5798 5797 5797 5796 5795 5795 5794 5793 5792 5791 5791 5790 5789 5788 5788 5787 5786 5785 5785 5784 5783 5782 5781 5781 5780 5780 5779 5779 5778 5777 5777 5776 5776 5775 5774 5774 5773 5773 5772 5771 5771
5842 5841 5841 5840 5839 5839 5838 5837 5837 5836 5835 5835 5834 5833 5833 5832 5831 5831 5830 5829 5829 5828 5827 5826 5826 5825 5824 5823 5822 5821 5821 5820 5819 5818 5817 5816 5816 5815 5814 5813 5812 5812 5811 5810 5809 5808 5807 5807 5806 5805 5805 5804 5803 5803 5802 5801 5801 5800 5799 5798 5798 5797 5796 5796 5795 5794 5793 5792 5791 5791 5790 5789 5788 5787 5787 5786 5785 5784 5783 5783 5782 5781 5780 5780 5779 5778 5777 5777 5776 5776 5775 5774 5774 5773 5772 5772 5771 5771 5770 5770 5769 5769 5768
5840 5839 5839 5838 5837 5837 5836 5836 5835 5834 5834 5833 5832 5832 5831 5830 5830 5829 5828 5827 5827 5826 5825 5825 5824 5823 5822 5821 5820 5820 5819 5818 5817 5816 5816 5815 5814 5813 5812 5811 5811 5810 5809 5808 5807 5806 5806 5805 5804 5803 5803 5802 5801 5801 5800 5799 5799 5798 5797 5796 5796 5795 5794 5793 5793 5792 5791 5790 5789 5788 5787 5787 5786 5785 5784 5783 5782 5781 5781 5780 5779 5778 5777 5777 5776 5775 5775 5774 5773 5772 5772 5771 5771 5770 5769 5769 5768 5767 5767 5766 5766 5765 5765
5838 5837 5837 5836 5836 5835 5834 5834 5833 5832 5832 5831 5830 5830 5829 5828 5828 5827 5826 5826 5825 5824 5823 5823 5822 5821 5820 5819 5818 5818 5817 5816 5815 5814 5814 5813 5812 5811 5811 5810 5809 5808 5807 5806 5806 5805 5804 5803 5802 5802 5801 5800 5799 5799 5798 5797 5796 5796 5795 5794 5793 5793 5792 5791 5791 5790 5789 5788 5787 5786 5785 5784 5783 5782 5781 5781 5780 5779 5778 5777 5776 5776 5775 5774 5773 5772 5771 5771 5770 5769 5769 5768 5767 5767 5766 5766 5765 5764 5764 5763 5762 5762 5761
5836 5836 5835 5834 5833 5833 5832 5832 5831 5830 5830 5829 5828 5828 5827 5826 5826 5825 5824 5824 5823 5822 5821 5821 5820 5819 5818 5817 5817 5816 5815 5814 5813 5813 5812 5811 5810 5810 5809 5808 5807 5806 5806 5805 5804 5803 5802 5801 5801 5800 5799 5798 5797 5797 5796 5795 5795 5794 5793 5792 5791 5791 5790 5789 5788 5787 5787 5786 5785 5784 5783 5782 5781 5780 5779 5778 5777 5776 5775 5774 5773 5773 5772 5771 5770 5769 5768 5768 5767 5766 5766 5765 5764 5763 5763 5762 5761 5761 5760 5760 5759 5759 5758
5834 5834 5833 5832 5831 5831 5830 5830 5829 5828 5827 5827 5826 5826 5825 5824 5824 5823 5822 5821 5821 5820 5820 5819 5818 5817 5816 5816 5815 5814 5813 5812 5811 5811 5810 5809 5808 5808 5807 5806 5805 5805 5804 5803 5802 5801 5801 5800 5799 5798 5797 5796 5796 5795 5794 5793 5793 5792 5791 5790 5789 5788 5788 5787 5786 5785 5784 5784 5783 5781 5781 5780 5779 5778 5776 5776 5774 5773 5772 5771 5771 5770 5769 5768 5767 5766 5765 5765 5764 5763 5762 5761 5761 5760 5759 5759 5758 5757 5757 5756 5756 5755 5755
5832 5831 5831 5830 5830 5829 5828 5827 5827 5826 5825 5825 5824 5823 5823 5822 5821 5821 5820 5820 5819 5818 5817 5817 5816 5815 5815 5814 5813 5812 5811 5811 5810 5809 5808 5807 5806 5806 5805 5804 5804 5803 5802 5801 5800 5800 5799 5798 5797 5796 5795 5794 5793 5793 5792 5791 5791 5790 5789 5788 5787 5786 5785 5784 5784 5783 5782 5781 5780 5779 5778 5777 5776 5775 5774 5773 5772 5771 5770 5769 5768 5767 5766 5765 5764 5763 5762 5761 5761 5760 5759 5758 5757 5757 5756 5755 5755 5754 5753 5753 5752 5752 5751
5830 5830 5829 5828 5828 5827 5826 5826 5825 5824 5823 5822 5822 5821 5821 5820 5819 5819 5818 5817 5817 5816 5815 5815 5814 5813 5813 5812 5811 5810 5810 5809 5808 5807 5806 5805 5805 5804 5803 5802 5801 5801 5800 5799 5798 5797 5796 5796 5795 5794 5793 5792 5791 5790 5790 5789 5788 5787 5786 5785 5784 5783 5782 5782 5781 5780 5779 5778 5777 5776 5775 5774 5773 5772 5771 5770 5769 5768 5767 5766 5765 5764 5763 5762 5761 5761 5760 5759 5758 5757 5756 5755 5754 5754 5753 5752 5751 5751 5750 5750 5749 5748 5748
5828 5828 5827 5826 5826 5825 5824 5823 5822 5822 5821 5820 5820 5819 5818 5818 5817 5816 5816 5815 5815 5814 5813 5813 5812 5811 5811 5810 5809 5808 5807 5807 5806 5805 5804 5803 5803 5802 5801 5800 5800 5799 5798 5797 5796 5795 5794 5793 5792 5791 5791 5790 5789 5788 5787 5786 5785 5784 5783 5782 5781 5781 5780 5779 5778 5777 5776 5775 5774 5773 5772 5771 5770 5769 5768 5767 5766 5765 5764 5763 5762 5761 5760 5759 5758 5757 5756 5756 5755 5754 5753 5752 5751 5751 5750 5749 5748 5747 5747 5746 5746 5745 5744
5826 5826 5825 5824 5824 5823 5822 5821 5820 5820 5819 5818 5818 5817 5816 5816 5815 5815 5814 5813 5812 5812 5811 5811 5810 5809 5809 5808 5807 5806 5806 5805 5804 5803 5802 5801 5801 5800 5799 5798 5797 5796 5796 5795 5794 5793 5792 5791 5790 5789 5788 5787 5786 5785 5784 5783 5782 5781 5781 5780 5779 5778 5777 5776 5775 5774 5773 5772 5771 5770 5769 5768 5767 5766 5765 5764 5763 5762 5761 5760 5759 5758 5757 5756 5755 5754 5753 5752 5751 5751 5750 5749 5748 5747 5746 5746 5745 5744 5744 5743 5742 5742 5741
5825 5824 5823 5822 5821 5821 5820 5819 5818 5817 5817 5816 5816 5815 5814 5814 5813 5812 5812 5811 5811 5810 5809 5809 5808 5807 5806 5806 5805 5804 5803 5803 5802 5801 5800 5799 5798 5797 5797 5796 5795 5794 5794 5793 5792 5791 5790 5789 5788 5787 5786 5785 5784 5782 5781 5781 5780 5779 5778 5777 5776 5775 5774 5773 5772 5771 5770 5769 5768 5767 5766 5765 5764 5763 5762 5761 5760 5759 5758 5756 5756 5755 5754 5753 5752 5751 5750 5749 5748 5747 5746 5746 5745 5744 5743 5742 5742 5741 5741 5740 5739 5738 5738
5823 5822 5821 5820 5819 5818 5817 5816 5816 5815 5815 5814 5813 5813 5812 5811 5811 5810 5810 5809 5808 5808 5807 5806 5806 5805 5805 5804 5803 5802 5801 5801 5800 5799 5798 5797 5796 5796 5795 5794 5793 5792 5791 5790 5789 5788 5787 5786 5785 5784 5783 5782 5781 5780 5779 5778 5777 5776 5775 5774 5773 5772 5771 5770 5769 5768 5766 5766 5764 5763 5762 5761 5761 5759 5758 5757 5756 5755 5754 5753 5752 5751 5751 5750 5749 5748 5747 5746 5745 5744 5743 5743 5742 5741 5740 5739 5739 5738 5737 5736 5736 5735 5734
5821 5819 5818 5818 5817 5816 5815 5815 5814 5813 5812 5812 5811 5811 5810 5809 5809 5808 5808 5807 5806 5806 5805 5804 5804 5803 5802 5801 5801 5800 5799 5798 5797 5796 5796 5795 5794 5793 5792 5791 5791 5790 5789 5788 5787 5786 5785 5784 5783 5782 5781 5779 5778 5777 5776 5776 5775 5774 5773 5772 5771 5770 5769 5767 5766 5765 5764 5763 5761 5760 5759 5758 5757 5756 5755 5754 5753 5752 5751 5750 5749 5748 5747 5746 5746 5745 5744 5743 5742 5741 5740 5739 5739 5738 5737 5736 5736 5735 5734 5733 5732 5732 5731
5818 5817 5816 5815 5815 5814 5813 5812 5811 5811 5810 5810 5809 5809 5808 5807 5807 5806 5806 5805 5804 5804 5803 5802 5801 5801 5800 5799 5799 5798 5797 5796 5795 5794 5793 5793 5792 5791 5790 5789 5788 5787 5786 5785 5784 5783 5782 5781 5780 5779 5777 5776 5775 5774 5773 5773 5772 5771 5770 5769 5768 5767 5766 5765 5764 5763 5761 5760 5759 5758 5757 5756 5754 5753 5752 5751 5750 5748 5747 5746 5746 5745 5744 5743 5742 5741 5741 5740 5739 5738 5737 5736 5735 5735 5734 5733 5732 5731 5731 5730 5729 5728 5728
5816 5815 5814 5813 5812 5812 5811 5810 5810 5809 5808 5808 5807 5806 5806 5805 5805 5804 5803 5803 5802 5801 5801 5800 5799 5799 5798 5797 5796 5796 5795 5794 5793 5792 5791 5790 5789 5788 5788 5787 5786 5785 5784 5783 5781 5781 5779 5778 5777 5776 5775 5773 5772 5771 5770 5769 5769 5768 5767 5766 5765 5764 5763 5762 5761 5760 5759 5758 5757 5756 5755 5753 5752 5751 5750 5748 5747 5746 5745 5743 5742 5741 5741 5740 5739 5738 5737 5736 5735 5735 5734 5733 5732 5731 5730 5729 5729 5728 5727 5726 5726 5725 5724
5814 5813 5812 5811 5810 5810 5809 5808 5807 5807 5806 5806 5805 5804 5804 5803 5802 5802 5801 5801 5800 5799 5799 5798 5797 5796 5796 5795 5794 5793 5792 5791 5791 5790 5789 5788 5787 5786 5785 5784 5783 5782 5781 5780 5779 5778 5776 5775 5774 5773 5771 5770 5769 5768 5767 5766 5765 5765 5764 5763 5762 5761 5760 5759 5758 5757 5756 5755 5754 5753 5752 5751 5750 5749 5747 5746 5745 5743 5742 5741 5740 5739 5737 5736 5736 5735 5734 5733 5732 5731 5730 5729 5729 5728 5727 5726 5725 5724 5724 5723 5722 5721 5721
5811 5811 5810 5809 5808 5808 5807 5806 5805 5805 5804 5803 5803 5802 5801 5801 5800 5800 5799 5798 5798 5797 5796 5796 5795 5794 5794 5793 5792 5791 5790 5789 5788 5787 5786 5786 5785 5784 5783 5782 5781 5780 5778 5777 5776 5775 5773 5772 5771 5770 5768 5767 5766 5765 5764 5763 5762 5761 5760 5759 5758 5757 5756 5755 5754 5754 5753 5752 5751 5751 5750 5749 5747 5746 5745 5744 5743 5741 5740 5739 5737 5736 5735 5734 5733 5732 5731 5730 5729 5728 5727 5726 5725 5725 5724 5723 5722 5721 5720 5720 5719 5718 5717
5809 5809 5808 5807 5806 5806 5805 5804 5803 5802 5802 5801 5801 5800 5799 5798 5798 5797 5796 5796 5795 5795 5794 5793 5793 5792 5791 5791 5790 5789 5788 5787 5786 5785 5784 5783 5782 5781 5780 5779 5778 5777 5776 5774 5773 5772 5771 5769 5768 5767 5766 5764 5763 5762 5761 5760 5759 5758 5757 5756 5755 5754 5753 5752 5751 5750 5750 5749 5748 5747 5746 5746 5745 5744 5742 5741 5740 5739 5738 5736 5735 5734 5733 5731 5730 5729 5728 5727 5726 5725 5724 5723 5722 5721 5721 5720 5719 5718 5717 5716 5716 5715 5714
5807 5806 5806 5805 5804 5804 5803 5802 5801 5800 5800 5799 5798 5797 5797 5796 5796 5795 5794 5793 5793 5792 5791 5791 5790 5790 5789 5788 5787 5787 5786 5785 5784 5783 5782 5781 5780 5779 5778 5776 5775 5774 5773 5771 5770 5769 5768 5766 5765 5764 5763 5761 5761 5759 5758 5758 5757 5756 5754 5753 5752 5751 5750 5749 5748 5747 5746 5746 5745 5744 5743 5742 5741 5741 5740 5739 5737 5736 5735 5734 5733 5731 5730 5729 5728 5727 5726 5724 5723 5722 5721 5721 5720 5719 5718 5717 5716 5715 5714 5713 5712 5711 5711
5805 5804 5804 5803 5802 5801 5801 5800 5799 5798 5797 5796 5796 5795 5795 5794 5793 5792 5791 5791 5790 5790 5789 5789 5788 5787 5786 5786 5785 5784 5784 5783 5782 5781 5780 5778 5777 5776 5775 5774 5773 5771 5770 5769 5767 5766 5765 5764 5762 5761 5760 5759 5758 5757 5756 5755 5754 5753 5752 5751 5749 5748 5747 5746 5745 5744 5743 5742 5741 5741 5740 5739 5738 5737 5736 5735 5734 5733 5732 5731 5730 5729 5728 5726 5725 5724 5723 5722 5721 5720 5719 5718 5717 5716 5715 5714 5713 5712 5711 5710 5709 5708 5708
5803 5802 5801 5801 5800 5799 5798 5797 5796 5796 5795 5794 5793 5793 5792 5791 5791 5790 5789 5789 5788 5787 5787 5786 5786 5785 5784 5784 5783 5782 5781 5780 5779 5778 5777 5776 5775 5774 5772 5771 5770 5769 5767 5766 5765 5764 5762 5761 5760 5758 5757 5756 5755 5754 5753 5752 5751 5750 5749 5748 5747 5746 5745 5744 5743 5742 5741 5740 5739 5738 5737 5736 5735 5734 5733 5732 5731 5730 5729 5728 5727 5726 5725 5724 5722 5721 5720 5719 5718 5717 5716 5715 5714 5713 5712 5711 5710 5709 5708 5707 5706 5705 5705
5801 5800 5799 5799 5798 5797 5796 5795 5794 5793 5792 5792 5791 5791 5790 5789 5788 5788 5787 5786 5786 5785 5785 5784 5783 5783 5782 5781 5781 5780 5779 5778 5777 5776 5775 5774 5772 5771 5770 5769 5767 5766 5765 5764 5762 5761 5760 5758 5757 5756 5755 5753 5752 5751 5750 5749 5748 5747 5746 5745 5744 5743 5742 5741 5740 5739 5738 5737 5736 5735 5734 5733 5732 5731 5730 5729 5728 5727 5726 5725 5724 5723 5722 5721 5720 5719 5717 5716 5715 5714 5713 5712 5711 5710 5709 5708 5707 5706 5705 5704 5703 5702 5701
5798 5797 5797 5796 5795 5794 5793 5792 5791 5791 5790 5789 5789 5788 5788 5787 5786 5785 5785 5784 5783 5783 5782 5782 5781 5781 5780 5779 5778 5778 5777 5776 5775 5774 5772 5771 5770 5769 5768 5766 5765 5763 5762 5761 5760 5758 5757 5756 5754 5753 5752 5751 5750 5748 5747 5746 5745 5744 5743 5742 5741 5741 5740 5739 5738 5736 5736 5735 5733 5732 5731 5730 5729 5728 5727 5726 5725 5724 5723 5722 5721 5720 5719 5718 5717 5716 5715 5714 5712 5711 5710 5709 5708 5707 5706 5705 5704 5703 5702 5701 5700 5699 5698
5796 5795 5794 5793 5793 5792 5791 5790 5789 5788 5788 5787 5786 5786 5785 5785 5784 5783 5782 5781 5781 5781 5780 5779 5779 5778 5777 5777 5776 5775 5774 5773 5772 5771 5770 5769 5768 5766 5765 5764 5763 5761 5760 5758 5757 5756 5754 5753 5751 5750 5749 5748 5746 5746 5744 5743 5742 5741 5741 5740 5739 5738 5737 5736 5735 5734 5733 5732 5731 5730 5728 5727 5726 5725 5724 5723 5722 5721 5720 5719 5718 5717 5716 5715 5714 5713 5712 5711 5710 5708 5707 5706 5705 5704 5703 5702 5701 5700 5699 5698 5696 5696 5695
5793 5792 5792 5791 5790 5789 5789 5788 5787 5786 5785 5785 5784 5783 5783 5782 5781 5781 5780 5779 5779 5778 5777 5777 5776 5776 5775 5774 5774 5773 5772 5771 5770 5769 5768 5767 5766 5764 5762 5761 5760 5759 5757 5756 5754 5753 5751 5750 5749 5747 5746 5745 5744 5742 5741 5741 5740 5739 5738 5737 5736 5736 5735 5734 5733 5732 5731 5730 5728 5727 5726 5725 5724 5722 5721 5720 5719 5718 5717 5716 5715 5714 5713 5712 5711 5710 5709 5708 5707 5706 5704 5703 5702 5701 5700 5699 5698 5697 5696 5695 5694 5692 5691
5791 5790 5789 5788 5788 5787 5786 5785 5785 5784 5783 5782 5781 5781 5780 5780 5779 5778 5777 5777 5776 5776 5775 5775 5774 5773 5773 5772 5771 5770 5770 5768 5767 5766 5766 5764 5763 5762 5760 5759 5757 5756 5755 5753 5752 5751 5749 5748 5746 5745 5744 5742 5741 5740 5739 5738 5737 5737 5736 5735 5734 5733 5732 5731 5730 5729 5728 5727 5726 5725 5723 5722 5721 5720 5719 5717 5716 5715 5714 5713 5712 5711 5710 5709 5708 5707 5706 5705 5704 5702 5701 5700 5699 5698 5697 5696 5695 5694 5693 5692 5691 5690 5688
5788 5787 5786 5786 5785 5785 5784 5783 5782 5781 5781 5780 5779 5778 5778 5777 5776 5776 5775 5774 5774 5773 5773 5772 5771 5771 5770 5770 5769 5767 5767 5766 5765 5764 5763 5761 5760 5759 5758 5756 5755 5753 5752 5751 5749 5748 5748 5746 5744 5743 5741 5740 5739 5738 5737 5736 5735 5734 5733 5732 5731 5731 5729 5728 5727 5726 5725 5724 5723 5722 5721 5719 5718 5717 5716 5715 5713 5712 5711 5710 5709 5708 5707 5706 5705 5704 5703 5702 5701 5699 5698 5697 5696 5695 5694 5693 5692 5691 5690 5689 5687 5686 5685
5786 5785 5784 5783 5783 5782 5781 5781 5780 5779 5778 5777 5777 5776 5775 5775 5774 5773 5772 5772 5771 5771 5770 5770 5769 5769 5767 5767 5766 5766 5764 5763 5762 5761 5761 5759 5758 5756 5755 5754 5753 5751 5750 5749 5747 5745 5745 5744 5742 5740 5739 5738 5736 5735 5734 5734 5733 5732 5731 5730 5729 5728 5726 5726 5725 5723 5722 5721 5720 5719 5718 5716 5716 5714 5713 5712 5711 5709 5708 5707 5706 5705 5704 5703 5702 5701 5700 5699 5697 5696 5695 5694 5693 5692 5691 5690 5689 5687 5686 5686 5684 5683 5682
5783 5782 5781 5781 5780 5780 5779 5778 5777 5776 5776 5775 5774 5773 5773 5772 5771 5771 5770 5770 5769 5768 5768 5767 5766 5766 5765 5765 5764 5763 5762 5761 5760 5759 5758 5757 5756 5754 5752 5751 5750 5749 5747 5746 5745 5743 5741 5741 5739 5737 5736 5736 5735 5733 5732 5731 5730 5729 5728 5727 5726 5725 5724 5722 5721 5721 5719 5718 5717 5716 5715 5714 5712 5711 5710 5709 5708 5706 5705 5704 5703 5702 5701 5700 5699 5698 5696 5695 5694 5693 5692 5691 5689 5688 5687 5686 5685 5684 5683 5682 5681 5680 5679
5780 5779 5778 5778 5777 5777 5776 5776 5775 5774 5773 5772 5771 5771 5770 5770 5769 5768 5768 5767 5767 5766 5766 5765 5764 5764 5763 5762 5761 5761 5760 5759 5757 5757 5756 5754 5753 5752 5750 5749 5747 5746 5745 5744 5743 5741 5739 5738 5737 5736 5734 5734 5733 5731 5730 5729 5728 5726 5725 5724 5723 5722 5721 5720 5719 5717 5716 5716 5714 5713 5712 5711 5709 5708 5707 5706 5705 5703 5702 5701 5700 5699 5697 5696 5695 5694 5693 5692 5691 5689 5688 5687 5686 5685 5684 5682 5681 5681 5679 5678 5677 5676 5675
5777 5776 5775 5775 5774 5774 5774 5773 5773 5772 5771 5770 5769 5768 5768 5767 5767 5766 5766 5765 5764 5764 5763 5763 5762 5761 5761 5760 5759 5758 5757 5756 5755 5754 5753 5752 5751 5750 5748 5747 5745 5744 5742 5741 5740 5739 5737 5736 5734 5733 5732 5732 5731 5729 5727 5726 5725 5724 5722 5721 5720 5719 5718 5717 5716 5715 5713 5712 5711 5710 5709 5708 5706 5705 5704 5703 5702 5701 5699 5698 5697 5695 5694 5693 5692 5691 5689 5688 5687 5686 5685 5683 5682 5681 5680 5679 5678 5677 5676 5675 5674 5673 5672
5774 5773 5772 5772 5771 5771 5771 5771 5770 5769 5768 5767 5766 5766 5765 5765 5764 5764 5763 5763 5762 5761 5761 5760 5760 5759 5758 5757 5756 5756 5755 5754 5753 5752 5751 5750 5748 5747 5746 5745 5743 5742 5741 5739 5737 5736 5734 5733 5733 5731 5729 5730 5730 5728 5726 5724 5723 5721 5720 5719 5717 5716 5715 5714 5713 5712 5711 5710 5709 5707 5706 5705 5704 5702 5701 5700 5699 5698 5696 5695 5694 5692 5691 5690 5689 5687 5686 5685 5684 5682 5681 5680 5679 5677 5676 5675 5674 5673 5672 5671 5670 5669 5668
5772 5771 5770 5769 5769 5769 5768 5768 5768 5767 5766 5765 5764 5763 5763 5762 5762 5761 5761 5760 5760 5759 5758 5758 5757 5756 5755 5755 5754 5753 5752 5751 5751 5750 5748 5747 5746 5745 5744 5742 5741 5740 5738 5737 5735 5734 5731 5730 5730 5729 5728 5726 5726 5726 5725 5723 5721 5719 5718 5716 5715 5714 5712 5711 5710 5709 5708 5707 5706 5705 5704 5702 5701 5700 5699 5697 5696 5695 5694 5692 5691 5690 5688 5687 5686 5684 5683 5682 5681 5679 5678 5676 5675 5674 5673 5671 5670 5669 5668 5667 5666 5665 5664
5769 5768 5768 5767 5766 5766 5766 5766 5765 5764 5763 5762 5761 5761 5761 5760 5759 5759 5758 5758 5757 5757 5756 5755 5755 5754 5753 5752 5751 5751 5750 5749 5748 5747 5746 5745 5744 5743 5742 5740 5739 5737 5736 5735 5733 5731 5730 5728 5727 5726 5726 5725 5723 5723 5723 5722 5719 5717 5715 5714 5712 5711 5710 5708 5707 5706 5705 5704 5703 5702 5701 5700 5699 5697 5696 5695 5693 5692 5691 5690 5688 5687 5686 5684 5683 5682 5680 5679 5678 5676 5675 5674 5672 5671 5669 5668 5667 5666 5664 5663 5662 5661 5660
5766 5766 5765 5765 5764 5764 5763 5763 5762 5762 5761 5760 5759 5759 5758 5757 5757 5756 5756 5756 5755 5754 5754 5753 5752 5751 5751 5750 5749 5748 5747 5746 5745 5744 5744 5742 5741 5740 5740 5738 5736 5735 5734 5732 5731 5729 5728 5726 5725 5724 5723 5722 5721 5720 5719 5719 5718 5716 5713 5711 5710 5708 5707 5706 5705 5703 5702 5701 5700 5699 5698 5697 5696 5695 5693 5692 5690 5689 5688 5686 5685 5684 5683 5681 5680 5679 5678 5676 5675 5674 5672 5671 5669 5668 5666 5665 5664 5662 5661 5660 5658 5657 5656
5764 5763 5762 5762 5761 5761 5761 5761 5760 5759 5758 5758 5757 5756 5756 5755 5754 5754 5753 5753 5752 5752 5751 5750 5750 5749 5748 5747 5746 5746 5745 5744 5742 5741 5741 5740 5738 5737 5737 5736 5734 5733 5731 5730 5728 5727 5726 5724 5723 5722 5721 5720 5719 5718 5717 5716 5714 5713 5711 5710 5708 5706 5704 5703 5701 5700 5699 5698 5697 5696 5695 5694 5692 5691 5690 5689 5687 5686 5685 5684 5682 5681 5680 5679 5677 5676 5675 5673 5672 5671 5669 5668 5666 5665 5664 5662 5661 5660 5658 5657 5655 5654 5653